This is the latest recevied weather packets stored in our database for station/object 2E1HJE-10. If no packets are shown the sender has not sent any weather packets the latest 10 day(s).
| Time | Temp. | Humidity | Pressure | Rain* | Wind** | Luminosity | Snow |
|---|---|---|---|---|---|---|---|
| 1777571908 | 17.22° C | 39% | 1020.9 hPa | 0 mm | - | - | - |
| 1777571310 | 17.22° C | 39% | 1020.9 hPa | 0 mm | - | - | - |
| 1777570708 | 17.78° C | 39% | 1020.9 hPa | 0 mm | - | - | - |
| 1777570108 | 17.78° C | 38% | 1021 hPa | 0 mm | - | - | - |
| 1777568907 | 18.33° C | 38% | 1021 hPa | 0 mm | - | - | - |
| 1777568307 | 18.33° C | 39% | 1021.4 hPa | 0 mm | - | - | - |
| 1777566509 | 18.33° C | 37% | 1021.4 hPa | 0 mm | - | - | - |
| 1777565308 | 18.89° C | 37% | 1021.4 hPa | 0 mm | - | - | - |
| 1777564108 | 18.89° C | 34% | 1021.9 hPa | 0 mm | - | - | - |
| 1777563507 | 18.89° C | 34% | 1021.9 hPa | 0 mm | - | - | - |
| 1777562907 | 18.89° C | 34% | 1021.9 hPa | 0 mm | - | - | - |
| 1777561708 | 19.44° C | 29% | 1021.7 hPa | 0 mm | - | - | - |
| 1777561107 | 19.44° C | 30% | 1021.8 hPa | 0 mm | - | - | - |
| 1777560508 | 19.44° C | 30% | 1021.8 hPa | 0 mm | - | - | - |
| 1777559309 | 19.44° C | 30% | 1021.8 hPa | 0 mm | - | - | - |
| 1777558709 | 18.89° C | 31% | 1021.7 hPa | 0 mm | - | - | - |
| 1777558108 | 18.89° C | 31% | 1022.1 hPa | 0 mm | - | - | - |
| 1777557507 | 18.89° C | 33% | 1022.5 hPa | 0 mm | - | - | - |
| 1777556907 | 18.89° C | 33% | 1022.5 hPa | 0 mm | - | - | - |
| 1777556309 | 18.89° C | 33% | 1022.5 hPa | 0 mm | - | - | - |
| 1777555708 | 18.89° C | 33% | 1022.5 hPa | 0 mm | - | - | - |
| 1777555108 | 18.89° C | 33% | 1022.5 hPa | 0 mm | - | - | - |
| 1777554507 | 18.89° C | 33% | 1022.5 hPa | 0 mm | - | - | - |
| 1777553908 | 18.89° C | 33% | 1022.5 hPa | 0 mm | - | - | - |
| 1777553307 | 18.89° C | 33% | 1022.5 hPa | 0 mm | - | - | - |
* Rain latest hour (hover to see other rain measurements)
** Current wind speed in m/s (hover to see current wind gust speed)